Worthington, MN

8:50 PM CDT on March 26, 2017 (GMT -0500)
Worthington Municipal

Weather History for KOTG - April, 2012

Change the Weather History Date:

Friday, April 20, 2012

  Actual Average Record
Temperature  
Mean Temperature 43 °F -  
Max Temperature 53 °F 56 °F 87 °F (1987)
Min Temperature 33 °F 35 °F 17 °F (2013)
Degree Days  
Heating Degree Days 22    
Moisture  
Dew Point 28 °F    
Average Humidity 58    
Maximum Humidity 87    
Minimum Humidity 38    
Precipitation  
Precipitation 0.00 in - - ()
Sea Level Pressure  
Sea Level Pressure 30.03 in    
Wind  
Wind Speed 9 mph (NNW)    
Max Wind Speed 14 mph    
Max Gust Speed 16 mph    
Visibility 10 miles    
Events      
Averages and records for this station are not official NWS values.
T = Trace of Precipitation, MM = Missing Value Source: NWS Daily Summary

Daily Weather History Graph

Daily Weather History Graph

Search for Another Location

Airport or City:

Trip Planner

Search our weather history database for the weather conditions in past years. The results will help you decide how hot, cold, wet, or windy it might be!

Date:

Astronomy

Apr. 20, 2012 Rise Set
Actual Time 6:30 AM CDT 8:12 PM CDT
Civil Twilight 6:00 AM CDT 8:42 PM CDT
Nautical Twilight 5:23 AM CDT 9:19 PM CDT
Astronomical Twilight 4:43 AM CDT 9:59 PM CDT
Moon 5:54 AM CDT (4/20) 7:59 PM CDT (4/20)
Length of Visible Light 14h 42m
Length of Day
13h 41m
Waning Crescent, 0% of the Moon is Illuminated
Apr 20
Waning Crescent
Apr 21
New
Apr 29
First Quarter
May 5
Full
May 12
Last Quarter

Hourly Weather History & Observations

Time (CDT) Temp. Windchill Dew Point Humidity Pressure Visibility Wind Dir Wind Speed Gust Speed Precip Events Conditions
12:15 AM 33.8 °F 26.4 °F 30.2 °F 87% 29.95 in 10.0 mi NW 9.2 mph - N/A   Clear
12:35 AM 35.6 °F 29.2 °F 30.2 °F 81% 29.96 in 10.0 mi NNW 8.1 mph - N/A   Clear
12:55 AM 33.8 °F 26.4 °F 30.2 °F 87% 29.96 in 10.0 mi NNW 9.2 mph - N/A   Clear
1:15 AM 33.8 °F 25.8 °F 28.4 °F 81% 29.96 in 10.0 mi NNW 10.4 mph - N/A   Clear
1:35 AM 33.8 °F 25.8 °F 28.4 °F 81% 29.97 in 10.0 mi NNW 10.4 mph - N/A   Clear
1:55 AM 33.8 °F 25.8 °F 28.4 °F 81% 29.97 in 10.0 mi NNW 10.4 mph - N/A   Clear
2:15 AM 33.8 °F 26.4 °F 26.6 °F 75% 29.97 in 10.0 mi NNW 9.2 mph - N/A   Clear
2:35 AM 33.8 °F 25.8 °F 26.6 °F 75% 29.97 in 10.0 mi NNW 10.4 mph - N/A   Clear
2:55 AM 33.8 °F 25.8 °F 26.6 °F 75% 29.98 in 10.0 mi NNW 10.4 mph - N/A   Clear
3:15 AM 33.8 °F 25.8 °F 26.6 °F 75% 29.98 in 10.0 mi NNW 10.4 mph - N/A   Clear
3:35 AM 33.8 °F 25.3 °F 26.6 °F 75% 29.98 in 10.0 mi NNW 11.5 mph - N/A   Clear
3:55 AM 33.8 °F 25.8 °F 26.6 °F 75% 29.99 in 10.0 mi NNW 10.4 mph - N/A   Clear
4:15 AM 33.8 °F 25.8 °F 26.6 °F 75% 29.99 in 10.0 mi NNW 10.4 mph - N/A   Clear
4:35 AM 33.8 °F 26.4 °F 26.6 °F 75% 30.00 in 10.0 mi NNW 9.2 mph - N/A   Clear
4:55 AM 33.8 °F 26.4 °F 26.6 °F 75% 30.01 in 10.0 mi NNW 9.2 mph - N/A   Clear
5:15 AM 33.8 °F 25.3 °F 26.6 °F 75% 30.02 in 10.0 mi NNW 11.5 mph - N/A   Clear
5:35 AM 33.8 °F 26.4 °F 26.6 °F 75% 30.03 in 10.0 mi NNW 9.2 mph - N/A   Mostly Cloudy
5:55 AM 33.8 °F 26.4 °F 26.6 °F 75% 30.02 in 10.0 mi North 9.2 mph - N/A   Overcast
6:15 AM 33.8 °F 25.8 °F 26.6 °F 75% 30.02 in 10.0 mi North 10.4 mph - N/A   Mostly Cloudy
6:35 AM 33.8 °F 26.4 °F 26.6 °F 75% 30.03 in 10.0 mi NNW 9.2 mph - N/A   Mostly Cloudy
6:55 AM 33.8 °F 27.0 °F 26.6 °F 75% 30.03 in 10.0 mi NNW 8.1 mph - N/A   Mostly Cloudy
7:15 AM 33.8 °F 27.0 °F 26.6 °F 75% 30.04 in 10.0 mi NNW 8.1 mph - N/A   Scattered Clouds
7:35 AM 33.8 °F 27.0 °F 26.6 °F 75% 30.05 in 10.0 mi NNW 8.1 mph - N/A   Mostly Cloudy
7:55 AM 35.6 °F 28.6 °F 26.6 °F 70% 30.06 in 10.0 mi NNW 9.2 mph - N/A   Overcast
8:15 AM 35.6 °F 28.0 °F 26.6 °F 70% 30.07 in 10.0 mi NNW 10.4 mph - N/A   Partly Cloudy
8:35 AM 35.6 °F 27.5 °F 26.6 °F 70% 30.08 in 10.0 mi NNW 11.5 mph - N/A   Clear
8:55 AM 37.4 °F 30.3 °F 26.6 °F 65% 30.09 in 10.0 mi NNW 10.4 mph - N/A   Clear
9:15 AM 39.2 °F 33.0 °F 26.6 °F 61% 30.08 in 10.0 mi NNW 9.2 mph - N/A   Clear
9:35 AM 41.0 °F 35.2 °F 26.6 °F 57% 30.08 in 10.0 mi NNW 9.2 mph - N/A   Clear
9:55 AM 42.8 °F 38.0 °F 26.6 °F 53% 30.09 in 10.0 mi North 8.1 mph - N/A   Clear
10:15 AM 42.8 °F 38.0 °F 24.8 °F 49% 30.10 in 10.0 mi North 8.1 mph - N/A   Clear
10:35 AM 44.6 °F 40.2 °F 24.8 °F 46% 30.09 in 10.0 mi North 8.1 mph - N/A   Clear
10:55 AM 44.6 °F 39.7 °F 24.8 °F 46% 30.10 in 10.0 mi NNE 9.2 mph - N/A   Clear
11:15 AM 46.4 °F 41.1 °F 26.6 °F 46% 30.09 in 10.0 mi NE 11.5 mph - N/A   Clear
11:35 AM 46.4 °F 41.9 °F 26.6 °F 46% 30.09 in 10.0 mi NNE 9.2 mph - N/A   Clear
11:55 AM 48.2 °F - 26.6 °F 43% 30.09 in 10.0 mi North 11.5 mph - N/A   Clear
12:15 PM 48.2 °F - 28.4 °F 46% 30.09 in 10.0 mi North 13.8 mph - N/A   Clear
12:35 PM 48.2 °F - 26.6 °F 43% 30.08 in 10.0 mi North 9.2 mph - N/A   Clear
12:55 PM 48.2 °F - 28.4 °F 46% 30.08 in 10.0 mi NNE 6.9 mph 16.1 mph N/A   Clear
1:15 PM 48.2 °F - 26.6 °F 43% 30.07 in 10.0 mi NW 6.9 mph - N/A   Clear
1:35 PM 50.0 °F - 26.6 °F 40% 30.07 in 10.0 mi NW 5.8 mph - N/A   Clear
1:55 PM 50.0 °F - 26.6 °F 40% 30.07 in 10.0 mi NNW 6.9 mph - N/A   Clear
2:15 PM 51.8 °F - 30.2 °F 44% 30.07 in 10.0 mi NNW 10.4 mph - N/A   Clear
2:35 PM 51.8 °F - 28.4 °F 41% 30.06 in 10.0 mi NW 9.2 mph - N/A   Scattered Clouds
2:55 PM 51.8 °F - 26.6 °F 38% 30.06 in 10.0 mi North 5.8 mph - N/A   Partly Cloudy
3:15 PM 51.8 °F - 28.4 °F 41% 30.06 in 10.0 mi North 8.1 mph - N/A   Clear
3:35 PM 53.6 °F - 28.4 °F 38% 30.05 in 10.0 mi NNW 6.9 mph - N/A   Scattered Clouds
3:55 PM 53.6 °F - 28.4 °F 38% 30.05 in 10.0 mi West 5.8 mph - N/A   Partly Cloudy
4:15 PM 53.6 °F - 30.2 °F 41% 30.04 in 10.0 mi NW 6.9 mph - N/A   Scattered Clouds
4:35 PM 53.6 °F - 28.4 °F 38% 30.05 in 10.0 mi NW 6.9 mph - N/A   Scattered Clouds
4:55 PM 53.6 °F - 30.2 °F 41% 30.05 in 10.0 mi NNW 6.9 mph - N/A   Mostly Cloudy
5:15 PM 53.6 °F - 28.4 °F 38% 30.04 in 10.0 mi NNW 6.9 mph - N/A   Mostly Cloudy
5:35 PM 51.8 °F - 28.4 °F 41% 30.04 in 10.0 mi NNE 4.6 mph - N/A   Partly Cloudy
5:55 PM 53.6 °F - 28.4 °F 38% 30.04 in 10.0 mi North 3.5 mph - N/A   Mostly Cloudy
6:15 PM 53.6 °F - 30.2 °F 41% 30.04 in 10.0 mi NNE 4.6 mph - N/A   Overcast
6:35 PM 53.6 °F - 30.2 °F 41% 30.03 in 10.0 mi NE 3.5 mph - N/A   Overcast
6:55 PM 53.6 °F - 28.4 °F 38% 30.03 in 10.0 mi Calm Calm - N/A   Mostly Cloudy
7:15 PM 53.6 °F - 30.2 °F 41% 30.02 in 10.0 mi Calm Calm - N/A   Mostly Cloudy
7:35 PM 53.6 °F - 30.2 °F 41% 30.02 in 10.0 mi WSW 3.5 mph - N/A   Scattered Clouds
7:55 PM 51.8 °F - 30.2 °F 44% 30.02 in 10.0 mi Calm Calm - N/A   Clear
8:35 PM 51.8 °F - 28.4 °F 41% 30.02 in 10.0 mi SSE 4.6 mph - N/A   Clear
9:15 PM 48.2 °F - 30.2 °F 50% 30.01 in 10.0 mi South 5.8 mph - N/A   Clear
9:35 PM 48.2 °F - 33.8 °F 58% 30.01 in 10.0 mi South 8.1 mph - N/A   Clear
9:55 PM 48.2 °F - 33.8 °F 58% 30.01 in 10.0 mi South 8.1 mph - N/A   Clear
10:15 PM 46.4 °F 42.4 °F 33.8 °F 62% 30.01 in 10.0 mi South 8.1 mph - N/A   Clear
10:35 PM 46.4 °F 42.4 °F 33.8 °F 62% 30.01 in 10.0 mi South 8.1 mph - N/A   Clear
10:55 PM 46.4 °F 41.5 °F 33.8 °F 62% 30.01 in 10.0 mi South 10.4 mph - N/A   Clear
11:15 PM 46.4 °F 41.1 °F 32.0 °F 57% 30.01 in 10.0 mi South 11.5 mph - N/A   Clear
11:35 PM 44.6 °F 39.2 °F 32.0 °F 61% 30.01 in 10.0 mi South 10.4 mph - N/A   Partly Cloudy
11:55 PM 44.6 °F 38.8 °F 32.0 °F 61% 30.01 in 10.0 mi South 11.5 mph - N/A   Partly Cloudy